N87JW CYZT-CYNJ

Flight info

Callsign N87JW
Flight time 0h 59m
Altitude 27000
Route UKNAL DCT PIKTA DCT KELSY DCT AGLAT DCT IMOTI
Aircraft PC12/L-SDFGRWY/S

Departure

Time 2026-05-01 13:23
Airport Port Hardy Airport (CYZT)

Arrival

Time 2026-05-01 14:23
Airport Langley Airport (CYNJ)
Time Latitude Longitude Altitude Speed Heading
2026-05-01 13:07 50.68299 -127.37622 40 ft 0 kts 142°
2026-05-01 13:17 50.68296 -127.37619 40 ft 2 kts 144°
2026-05-01 13:18 50.68324 -127.37552 40 ft 7 kts 26°
2026-05-01 13:18 50.68371 -127.37518 40 ft 7 kts 24°
2026-05-01 13:18 50.68433 -127.37476 39 ft 12 kts 22°
2026-05-01 13:18 50.68507 -127.37426 38 ft 11 kts 24°
2026-05-01 13:19 50.68571 -127.37349 38 ft 12 kts 41°
2026-05-01 13:19 50.68584 -127.37240 40 ft 12 kts 129°
2026-05-01 13:19 50.68463 -127.37021 44 ft 16 kts 133°
2026-05-01 13:20 50.68391 -127.36889 47 ft 15 kts 132°
2026-05-01 13:20 50.68328 -127.36767 51 ft 14 kts 130°
2026-05-01 13:20 50.68260 -127.36641 52 ft 16 kts 130°
2026-05-01 13:21 50.68123 -127.36390 58 ft 15 kts 130°
2026-05-01 13:21 50.68057 -127.36266 60 ft 15 kts 126°
2026-05-01 13:21 50.68014 -127.36158 60 ft 8 kts 181°
2026-05-01 13:21 50.68012 -127.36207 60 ft 0 kts 272°
2026-05-01 13:22 50.68014 -127.36265 60 ft 25 kts 273°
2026-05-01 13:23 50.68041 -127.36863 54 ft 80 kts 274°
2026-05-01 13:23 50.68078 -127.37792 281 ft 87 kts 273°
2026-05-01 13:23 50.68104 -127.38785 568 ft 93 kts 274°
2026-05-01 13:23 50.68130 -127.39854 851 ft 102 kts 273°
2026-05-01 13:24 50.68163 -127.41072 1094 ft 122 kts 282°
2026-05-01 13:24 50.68657 -127.42249 1454 ft 141 kts 325°
2026-05-01 13:24 50.69624 -127.42612 1931 ft 151 kts
2026-05-01 13:25 50.70924 -127.40229 3220 ft 159 kts 81°
2026-05-01 13:25 50.70919 -127.38463 3799 ft 162 kts 90°
2026-05-01 13:25 50.70848 -127.36721 4467 ft 158 kts 92°
2026-05-01 13:25 50.70775 -127.34990 5105 ft 158 kts 92°
2026-05-01 13:26 50.70709 -127.33264 5728 ft 158 kts 93°
2026-05-01 13:26 50.70647 -127.31533 6351 ft 158 kts 94°
2026-05-01 13:26 50.70588 -127.29801 6947 ft 159 kts 94°
2026-05-01 13:26 50.70529 -127.28044 7534 ft 161 kts 95°
2026-05-01 13:27 50.70470 -127.26272 8175 ft 163 kts 95°
2026-05-01 13:27 50.70409 -127.24468 8761 ft 166 kts 95°
2026-05-01 13:27 50.70282 -127.20784 9872 ft 170 kts 96°
2026-05-01 13:28 50.70152 -127.16996 10869 ft 176 kts 96°
2026-05-01 13:28 50.70085 -127.15053 11373 ft 178 kts 96°
2026-05-01 13:29 50.69893 -127.11125 12351 ft 183 kts 105°
2026-05-01 13:29 50.69035 -127.07338 13327 ft 186 kts 113°
2026-05-01 13:30 50.67272 -126.99444 15169 ft 193 kts 115°
2026-05-01 13:31 50.66352 -126.95429 16056 ft 196 kts 115°
2026-05-01 13:31 50.64940 -126.89302 17223 ft 200 kts 115°
2026-05-01 13:32 50.63983 -126.85160 17944 ft 203 kts 115°
2026-05-01 13:33 50.62522 -126.78848 18908 ft 206 kts 115°
2026-05-01 13:33 50.61539 -126.74610 19485 ft 208 kts 116°
2026-05-01 13:34 50.60538 -126.70298 20062 ft 211 kts 116°
2026-05-01 13:34 50.59524 -126.65941 20631 ft 213 kts 116°
2026-05-01 13:35 50.58496 -126.61538 21202 ft 216 kts 116°
2026-05-01 13:35 50.57978 -126.59320 21468 ft 217 kts 117°
2026-05-01 13:35 50.56926 -126.54821 21995 ft 220 kts 117°
2026-05-01 13:36 50.56395 -126.52548 22310 ft 222 kts 117°
2026-05-01 13:36 50.55860 -126.50262 22636 ft 224 kts 117°
2026-05-01 13:36 50.54771 -126.45626 23216 ft 227 kts 117°
2026-05-01 13:37 50.54223 -126.43294 23534 ft 228 kts 118°
2026-05-01 13:37 50.53857 -126.41739 23728 ft 229 kts 118°
2026-05-01 13:37 50.53112 -126.38583 24079 ft 230 kts 118°
2026-05-01 13:37 50.52554 -126.36219 24348 ft 231 kts 118°
2026-05-01 13:38 50.51620 -126.32268 24796 ft 233 kts 118°
2026-05-01 13:38 50.51053 -126.29870 25062 ft 234 kts 118°
2026-05-01 13:38 50.50299 -126.26693 25413 ft 235 kts 118°
2026-05-01 13:39 50.49726 -126.24280 25679 ft 236 kts 118°
2026-05-01 13:39 50.49345 -126.22677 25858 ft 237 kts 118°
2026-05-01 13:39 50.48768 -126.20253 26135 ft 238 kts 118°
2026-05-01 13:39 50.48188 -126.17817 26420 ft 239 kts 118°
2026-05-01 13:40 50.47604 -126.15367 26705 ft 240 kts 118°
2026-05-01 13:40 50.47018 -126.12911 26972 ft 242 kts 117°
2026-05-01 13:40 50.46418 -126.10409 27064 ft 251 kts 117°
2026-05-01 13:40 50.45784 -126.07791 27061 ft 262 kts 117°
2026-05-01 13:41 50.45115 -126.05076 27067 ft 270 kts 118°
2026-05-01 13:41 50.44355 -126.02353 27126 ft 274 kts 121°
2026-05-01 13:41 50.43538 -125.99636 27135 ft 278 kts 121°
2026-05-01 13:41 50.42693 -125.96880 27141 ft 282 kts 121°
2026-05-01 13:42 50.41840 -125.94089 27141 ft 285 kts 121°
2026-05-01 13:42 50.40985 -125.91277 27142 ft 287 kts 121°
2026-05-01 13:42 50.40130 -125.88444 27143 ft 288 kts 121°
2026-05-01 13:42 50.39284 -125.85623 27144 ft 284 kts 121°
2026-05-01 13:43 50.38448 -125.82831 27139 ft 282 kts 121°
2026-05-01 13:43 50.37619 -125.80061 27136 ft 279 kts 121°
2026-05-01 13:43 50.36798 -125.77322 27140 ft 277 kts 121°
2026-05-01 13:43 50.35980 -125.74598 27137 ft 276 kts 121°
2026-05-01 13:44 50.35164 -125.71884 27133 ft 275 kts 121°
2026-05-01 13:44 50.34361 -125.69217 27131 ft 273 kts 121°
2026-05-01 13:44 50.33552 -125.66530 27127 ft 273 kts 121°
2026-05-01 13:44 50.32742 -125.63843 27133 ft 273 kts 121°
2026-05-01 13:45 50.31931 -125.61160 27139 ft 273 kts 121°
2026-05-01 13:45 50.31119 -125.58472 27128 ft 274 kts 121°
2026-05-01 13:45 50.30302 -125.55773 27125 ft 274 kts 121°
2026-05-01 13:45 50.29487 -125.53080 27120 ft 274 kts 121°
2026-05-01 13:46 50.28673 -125.50395 27121 ft 274 kts 121°
2026-05-01 13:46 50.27857 -125.47705 27117 ft 273 kts 121°
2026-05-01 13:46 50.27042 -125.45020 27114 ft 273 kts 121°
2026-05-01 13:46 50.26229 -125.42343 27107 ft 272 kts 121°
2026-05-01 13:47 50.25417 -125.39675 27114 ft 272 kts 121°
2026-05-01 13:47 50.24603 -125.37005 27117 ft 272 kts 121°
2026-05-01 13:47 50.23799 -125.34370 27113 ft 272 kts 121°
2026-05-01 13:47 50.22984 -125.31701 27113 ft 272 kts 121°
2026-05-01 13:48 50.22105 -125.29101 27108 ft 269 kts 127°
2026-05-01 13:48 50.21002 -125.26777 27089 ft 263 kts 137°
2026-05-01 13:48 50.19817 -125.24599 27099 ft 264 kts 136°
2026-05-01 13:48 50.18659 -125.22370 27102 ft 264 kts 135°
2026-05-01 13:49 50.17508 -125.20129 27103 ft 265 kts 135°
2026-05-01 13:49 50.16356 -125.17890 27102 ft 265 kts 135°
2026-05-01 13:49 50.15200 -125.15655 27102 ft 265 kts 135°
2026-05-01 13:49 50.14038 -125.13424 27100 ft 265 kts 135°
2026-05-01 13:50 50.12873 -125.11195 27100 ft 266 kts 135°
2026-05-01 13:50 50.11699 -125.08959 27099 ft 267 kts 135°
2026-05-01 13:50 50.10518 -125.06715 27099 ft 268 kts 135°
2026-05-01 13:50 50.09332 -125.04465 27100 ft 269 kts 135°
2026-05-01 13:51 50.08144 -125.02213 27100 ft 270 kts 135°
2026-05-01 13:51 50.06951 -124.99953 27099 ft 270 kts 135°
2026-05-01 13:51 50.05756 -124.97691 27099 ft 271 kts 135°
2026-05-01 13:51 50.04559 -124.95427 27094 ft 271 kts 135°
2026-05-01 13:52 50.03362 -124.93165 27087 ft 271 kts 135°
2026-05-01 13:52 50.02162 -124.90900 27091 ft 271 kts 135°
2026-05-01 13:52 50.00962 -124.88636 27095 ft 272 kts 135°
2026-05-01 13:52 49.99759 -124.86370 27096 ft 272 kts 135°
2026-05-01 13:53 49.98555 -124.84101 27095 ft 272 kts 135°
2026-05-01 13:53 49.96141 -124.79563 27096 ft 272 kts 135°
2026-05-01 13:53 49.94934 -124.77296 27094 ft 273 kts 135°
2026-05-01 13:54 49.93739 -124.75053 27095 ft 273 kts 135°
2026-05-01 13:54 49.92514 -124.72757 27096 ft 273 kts 135°
2026-05-01 13:54 49.91318 -124.70518 27098 ft 273 kts 135°
2026-05-01 13:54 49.90106 -124.68249 27098 ft 273 kts 135°
2026-05-01 13:55 49.88895 -124.65984 27099 ft 273 kts 135°
2026-05-01 13:55 49.87681 -124.63716 27086 ft 273 kts 135°
2026-05-01 13:55 49.86468 -124.61452 27093 ft 273 kts 135°
2026-05-01 13:55 49.85255 -124.59190 27096 ft 273 kts 135°
2026-05-01 13:56 49.84043 -124.56932 27100 ft 273 kts 135°
2026-05-01 13:56 49.82828 -124.54671 27100 ft 273 kts 135°
2026-05-01 13:56 49.81613 -124.52412 27102 ft 273 kts 135°
2026-05-01 13:56 49.80396 -124.50151 27104 ft 273 kts 135°
2026-05-01 13:57 49.79181 -124.47895 27102 ft 274 kts 135°
2026-05-01 13:57 49.77959 -124.45629 27102 ft 274 kts 135°
2026-05-01 13:57 49.76743 -124.43374 27102 ft 274 kts 135°
2026-05-01 13:57 49.75521 -124.41111 27099 ft 273 kts 135°
2026-05-01 13:58 49.74301 -124.38852 27099 ft 273 kts 135°
2026-05-01 13:58 49.73081 -124.36597 27099 ft 273 kts 135°
2026-05-01 13:58 49.71862 -124.34346 27100 ft 273 kts 135°
2026-05-01 13:58 49.70640 -124.32090 27092 ft 273 kts 135°
2026-05-01 13:59 49.69421 -124.29841 27096 ft 273 kts 135°
2026-05-01 13:59 49.68202 -124.27596 27098 ft 273 kts 135°
2026-05-01 13:59 49.66983 -124.25352 27096 ft 273 kts 135°
2026-05-01 13:59 49.65762 -124.23106 27096 ft 274 kts 135°
2026-05-01 14:00 49.64532 -124.20847 27095 ft 275 kts 135°
2026-05-01 14:00 49.63295 -124.18576 27096 ft 276 kts 135°
2026-05-01 14:00 49.62059 -124.16309 27095 ft 277 kts 135°
2026-05-01 14:00 49.60817 -124.14033 27097 ft 277 kts 135°
2026-05-01 14:01 49.59593 -124.11792 27093 ft 277 kts 135°
2026-05-01 14:01 49.58353 -124.09523 27096 ft 277 kts 135°
2026-05-01 14:01 49.57111 -124.07252 27092 ft 277 kts 135°
2026-05-01 14:01 49.55868 -124.04982 27093 ft 277 kts 135°
2026-05-01 14:02 49.54628 -124.02719 27068 ft 277 kts 135°
2026-05-01 14:02 49.53388 -124.00457 27079 ft 276 kts 135°
2026-05-01 14:02 49.52150 -123.98203 27082 ft 276 kts 135°
2026-05-01 14:02 49.50907 -123.95941 27084 ft 276 kts 135°
2026-05-01 14:03 49.49670 -123.93690 27086 ft 276 kts 135°
2026-05-01 14:03 49.48430 -123.91439 27085 ft 276 kts 135°
2026-05-01 14:03 49.47190 -123.89187 27080 ft 276 kts 135°
2026-05-01 14:03 49.45950 -123.86939 27080 ft 275 kts 135°
2026-05-01 14:04 49.44711 -123.84693 27080 ft 275 kts 135°
2026-05-01 14:04 49.43487 -123.82477 27080 ft 275 kts 135°
2026-05-01 14:04 49.42248 -123.80236 27080 ft 275 kts 135°
2026-05-01 14:04 49.41413 -123.78725 27081 ft 275 kts 135°
2026-05-01 14:05 49.39806 -123.75715 27089 ft 277 kts 129°
2026-05-01 14:05 49.38872 -123.73103 26961 ft 282 kts 117°
2026-05-01 14:05 49.38128 -123.70295 26615 ft 286 kts 116°
2026-05-01 14:05 49.37405 -123.67424 26164 ft 291 kts 115°
2026-05-01 14:06 49.36676 -123.64499 25601 ft 296 kts 115°
2026-05-01 14:06 49.35937 -123.61537 24994 ft 298 kts 115°
2026-05-01 14:06 49.35193 -123.58570 24400 ft 297 kts 115°
2026-05-01 14:06 49.34451 -123.55626 23821 ft 295 kts 115°
2026-05-01 14:07 49.33713 -123.52706 23174 ft 293 kts 116°
2026-05-01 14:07 49.32974 -123.49796 22500 ft 291 kts 116°
2026-05-01 14:07 49.32240 -123.46910 21841 ft 290 kts 116°
2026-05-01 14:08 49.30776 -123.41178 20569 ft 287 kts 116°
2026-05-01 14:08 49.30047 -123.38331 19957 ft 286 kts 116°
2026-05-01 14:08 49.29322 -123.35501 19350 ft 285 kts 116°
2026-05-01 14:08 49.28596 -123.32681 18758 ft 284 kts 116°
2026-05-01 14:09 49.27880 -123.29909 18153 ft 283 kts 116°
2026-05-01 14:09 49.27161 -123.27122 17487 ft 281 kts 116°
2026-05-01 14:09 49.26444 -123.24346 16824 ft 279 kts 115°
2026-05-01 14:09 49.25732 -123.21588 16186 ft 278 kts 115°
2026-05-01 14:10 49.25026 -123.18852 15560 ft 276 kts 115°
2026-05-01 14:10 49.24322 -123.16128 14934 ft 274 kts 115°
2026-05-01 14:10 49.23622 -123.13425 14346 ft 272 kts 116°
2026-05-01 14:10 49.22926 -123.10739 13738 ft 271 kts 116°
2026-05-01 14:11 49.22236 -123.08080 13072 ft 267 kts 115°
2026-05-01 14:11 49.20901 -123.02949 11818 ft 252 kts 115°
2026-05-01 14:11 49.20263 -123.00500 11242 ft 245 kts 115°
2026-05-01 14:12 49.19641 -122.98120 10693 ft 237 kts 115°
2026-05-01 14:12 49.19040 -122.95822 10138 ft 229 kts 115°
2026-05-01 14:12 49.18458 -122.93603 9545 ft 221 kts 115°
2026-05-01 14:12 49.17892 -122.91449 8954 ft 216 kts 115°
2026-05-01 14:13 49.17341 -122.89353 8410 ft 210 kts 114°
2026-05-01 14:13 49.16984 -122.87993 8057 ft 207 kts 114°
2026-05-01 14:13 49.16275 -122.85295 7358 ft 202 kts 114°
2026-05-01 14:13 49.15759 -122.83333 6934 ft 195 kts 114°
2026-05-01 14:14 49.15266 -122.81462 6526 ft 190 kts 114°
2026-05-01 14:14 49.14778 -122.79604 6092 ft 187 kts 114°
2026-05-01 14:14 49.14295 -122.77771 5663 ft 185 kts 114°
2026-05-01 14:14 49.13819 -122.75965 5277 ft 181 kts 114°
2026-05-01 14:15 49.13353 -122.74198 4908 ft 178 kts 114°
2026-05-01 14:15 49.12894 -122.72459 4524 ft 175 kts 114°
2026-05-01 14:15 49.12443 -122.70750 4142 ft 172 kts 113°
2026-05-01 14:15 49.11997 -122.69067 3770 ft 170 kts 113°
2026-05-01 14:16 49.11558 -122.67406 3397 ft 168 kts 112°
2026-05-01 14:16 49.11122 -122.65759 3020 ft 166 kts 112°
2026-05-01 14:16 49.10690 -122.64130 2646 ft 165 kts 112°
2026-05-01 14:16 49.10279 -122.62577 2550 ft 149 kts 111°
2026-05-01 14:17 49.09904 -122.61149 2459 ft 145 kts 111°
2026-05-01 14:17 49.09531 -122.59716 2283 ft 146 kts 111°
2026-05-01 14:17 49.09170 -122.58282 2160 ft 143 kts 108°
2026-05-01 14:17 49.09130 -122.56807 2029 ft 142 kts 71°
2026-05-01 14:18 49.09702 -122.55638 1987 ft 137 kts 34°
2026-05-01 14:18 49.10562 -122.55042 1928 ft 133 kts 20°
2026-05-01 14:18 49.11409 -122.54612 1897 ft 126 kts 18°
2026-05-01 14:18 49.11953 -122.54327 1837 ft 125 kts 21°
2026-05-01 14:19 49.13026 -122.53626 1704 ft 126 kts 26°
2026-05-01 14:19 49.13820 -122.53042 1587 ft 127 kts 25°
2026-05-01 14:19 49.14665 -122.52917 1533 ft 124 kts 341°
2026-05-01 14:19 49.15279 -122.53785 1538 ft 123 kts 298°
2026-05-01 14:20 49.15621 -122.54974 1554 ft 123 kts 293°
2026-05-01 14:20 49.16071 -122.57501 1328 ft 121 kts 256°
2026-05-01 14:20 49.15544 -122.58425 1179 ft 120 kts 203°
2026-05-01 14:21 49.14804 -122.58836 1108 ft 106 kts 198°
2026-05-01 14:21 49.14154 -122.59194 1023 ft 93 kts 201°
2026-05-01 14:21 49.13573 -122.59600 928 ft 92 kts 208°
2026-05-01 14:22 49.12461 -122.60581 688 ft 92 kts 212°
2026-05-01 14:22 49.11914 -122.61094 557 ft 92 kts 212°
2026-05-01 14:22 49.11363 -122.61606 376 ft 92 kts 212°
2026-05-01 14:22 49.10829 -122.62108 205 ft 88 kts 213°
2026-05-01 14:23 49.10321 -122.62587 47 ft 82 kts 212°
2026-05-01 14:23 49.09955 -122.62932 35 ft 17 kts 211°
2026-05-01 14:23 49.09904 -122.62979 34 ft 11 kts 211°
2026-05-01 14:23 49.09856 -122.63011 33 ft 5 kts 156°
2026-05-01 14:24 49.09855 -122.62954 33 ft 7 kts 65°
2026-05-01 14:24 49.09874 -122.62902 34 ft 5 kts 60°
2026-05-01 14:24 49.09893 -122.62856 36 ft 5 kts 60°
2026-05-01 14:24 49.09910 -122.62812 37 ft 5 kts 58°
2026-05-01 14:25 49.09927 -122.62770 37 ft 5 kts 59°
2026-05-01 14:25 49.09938 -122.62741 38 ft 5 kts 59°
2026-05-01 14:25 49.09953 -122.62704 39 ft 6 kts 60°
2026-05-01 14:25 49.09974 -122.62645 40 ft 7 kts 59°
2026-05-01 14:26 49.09999 -122.62584 41 ft 7 kts 59°
2026-05-01 14:26 49.10046 -122.62553 41 ft 2 kts
2026-05-01 14:26 49.10047 -122.62553 41 ft 0 kts